| time (UTC) | temp F | wind direction | speed MPH | gust MPH | rain 1hr in | rain 24hr in | rain mn in | humidity % | barometer mb |
| 20260902052737 | 66 | 339 | 0.0 | 0.0 | 0.00 | 0.00 | 0.00 | 52 | 1005.2 |
| 20260902051750 | 67 | 339 | 0.0 | 0.0 | 0.00 | 0.00 | 0.00 | 49 | 1005.2 |
| 20260902050806 | 68 | 340 | 0.0 | 0.0 | 0.00 | 0.00 | 0.00 | 48 | 1005.3 |
| 20260902045757 | 68 | 339 | 0.0 | 2.0 | 0.00 | 0.00 | 0.00 | 45 | 1005.4 |
| 20260902044807 | 68 | 340 | 1.0 | 4.0 | 0.00 | 0.00 | 0.00 | 45 | 1005.4 |
| 20260902043754 | 68 | 339 | 1.0 | 4.0 | 0.00 | 0.00 | 0.00 | 45 | 1005.6 |
| 20260902042802 | 69 | 339 | 1.0 | 7.0 | 0.00 | 0.00 | 0.00 | 45 | 1005.6 |
| 20260902041759 | 68 | 340 | 1.0 | 7.0 | 0.00 | 0.00 | 0.00 | 45 | 1005.6 |
| 20260902040739 | 68 | 339 | 0.0 | 0.0 | 0.00 | 0.00 | 0.00 | 46 | 1005.7 |
| 20260902035755 | 68 | 339 | 0.0 | 3.0 | 0.00 | 0.00 | 0.00 | 46 | 1005.6 |
| 20260902034728 | 69 | 339 | 0.0 | 4.0 | 0.00 | 0.00 | 0.00 | 45 | 1005.6 |
| 20260902033727 | 69 | 339 | 1.0 | 4.0 | 0.00 | 0.00 | 0.00 | 45 | 1005.5 |
| 20260902032656 | 69 | 339 | 0.0 | 0.0 | 0.00 | 0.00 | 0.00 | 46 | 1005.6 |
| 20260902031644 | 69 | 339 | 0.0 | 4.0 | 0.00 | 0.00 | 0.00 | 44 | 1005.5 |
| 20260902030646 | 70 | 338 | 0.0 | 4.0 | 0.00 | 0.00 | 0.00 | 45 | 1005.5 |
| 20260902025628 | 70 | 338 | 0.0 | 3.0 | 0.00 | 0.00 | 0.00 | 44 | 1005.4 |
| 20260902022424 | 71 | 338 | 0.0 | 4.0 | 0.00 | 0.00 | 0.00 | 43 | 1005.3 |
| 20260902021443 | 72 | 338 | 0.0 | 4.0 | 0.00 | 0.00 | 0.00 | 41 | 1005.2 |
| 20260902020428 | 72 | 338 | 0.0 | 0.0 | 0.00 | 0.00 | 0.00 | 39 | 1005.1 |
| 20260902015443 | 73 | 338 | 0.0 | 0.0 | 0.00 | 0.00 | 0.00 | 38 | 1005.0 |
| 20260902014423 | 73 | 338 | 0.0 | 0.0 | 0.00 | 0.00 | 0.00 | 37 | 1005.0 |
| 20260902013358 | 74 | 338 | 0.0 | 2.0 | 0.00 | 0.00 | 0.00 | 37 | 1005.0 |
| 20260902012340 | 74 | 338 | 0.0 | 2.0 | 0.00 | 0.00 | 0.00 | 37 | 1005.1 |
| 20260902011308 | 75 | 338 | 1.0 | 2.0 | 0.00 | 0.00 | 0.00 | 36 | 1005.1 |
| 20260902010244 | 76 | 338 | 0.0 | 2.0 | 0.00 | 0.00 | 0.00 | 35 | 1005.1 |
| 20260902005305 | 77 | 340 | 0.0 | 2.0 | 0.00 | 0.00 | 0.00 | 34 | 1005.0 |
| 20260902004242 | 77 | 342 | 0.0 | 0.0 | 0.00 | 0.00 | 0.00 | 33 | 1005.0 |
| 20260902003218 | 77 | 341 | 0.0 | 0.0 | 0.00 | 0.00 | 0.00 | 34 | 1005.0 |
| 20260902002229 | 77 | 340 | 0.0 | 0.0 | 0.00 | 0.00 | 0.00 | 34 | 1005.1 |
| 20260902001212 | 76 | 340 | 0.0 | 0.0 | 0.00 | 0.00 | 0.00 | 35 | 1005.0 |
| 20260902000204 | 76 | 341 | 0.0 | 0.0 | 0.00 | 0.00 | 0.00 | 34 | 1004.9 |
| 20260901235222 | 76 | 342 | 0.0 | 0.0 | 0.00 | 0.00 | 0.00 | 35 | 1005.0 |
| 20260901234210 | 76 | 342 | 0.0 | 0.0 | 0.00 | 0.00 | 0.00 | 36 | 1005.1 |
| 20260901232051 | 77 | 355 | 0.0 | 3.0 | 0.00 | 0.00 | 0.00 | 37 | 1005.3 |
| 20260901231029 | 77 | 344 | 0.0 | 2.0 | 0.00 | 0.00 | 0.00 | 38 | 1005.4 |
| 20260901230010 | 76 | 340 | 0.0 | 1.0 | 0.00 | 0.00 | 0.00 | 41 | 1005.4 |
| 20260901223748 | 76 | 337 | 0.0 | 0.0 | 0.00 | 0.00 | 0.00 | 38 | 1005.9 |
| 20260901222747 | 77 | 338 | 0.0 | 0.0 | 0.00 | 0.00 | 0.00 | 36 | 1006.1 |
| 20260901221748 | 77 | 338 | 0.0 | 4.0 | 0.00 | 0.00 | 0.00 | 31 | 1006.2 |
| 20260901220727 | 77 | 338 | 0.0 | 2.0 | 0.00 | 0.00 | 0.00 | 37 | 1006.3 |
| 20260901215717 | 77 | 339 | 0.0 | 2.0 | 0.00 | 0.00 | 0.00 | 31 | 1006.4 |
| 20260901214645 | 77 | 340 | 0.0 | 2.0 | 0.00 | 0.00 | 0.00 | 35 | 1006.4 |
| 20260901212500 | 80 | 30 | 0.0 | 1.0 | 0.00 | 0.00 | 0.00 | 33 | 1006.5 |
| 20260901211443 | 80 | 56 | 0.0 | 2.0 | 0.00 | 0.00 | 0.00 | 33 | 1006.5 |
| 20260901210501 | 80 | 59 | 0.0 | 3.0 | 0.00 | 0.00 | 0.00 | 32 | 1006.5 |
| 20260901205515 | 81 | 190 | 0.0 | 6.0 | 0.00 | 0.00 | 0.00 | 29 | 1006.5 |
| 20260901204533 | 81 | 191 | 0.0 | 2.0 | 0.00 | 0.00 | 0.00 | 27 | 1006.4 |
| 20260901203547 | 82 | 194 | 0.0 | 2.0 | 0.00 | 0.00 | 0.00 | 29 | 1006.5 |
| 20260901202533 | 81 | 194 | 0.0 | 4.0 | 0.00 | 0.00 | 0.00 | 29 | 1006.7 |
| 20260901201527 | 81 | 193 | 1.0 | 5.0 | 0.00 | 0.00 | 0.00 | 26 | 1006.8 |
| 20260901200455 | 81 | 194 | 1.0 | 5.0 | 0.00 | 0.00 | 0.00 | 26 | 1006.9 |
| 20260901195446 | 81 | 194 | 1.0 | 6.0 | 0.00 | 0.00 | 0.00 | 30 | 1006.9 |
| 20260901194452 | 80 | 194 | 0.0 | 6.0 | 0.00 | 0.00 | 0.00 | 30 | 1007.1 |
| 20260901193458 | 80 | 194 | 1.0 | 4.0 | 0.00 | 0.00 | 0.00 | 30 | 1007.3 |
| 20260901192514 | 80 | 194 | 0.0 | 5.0 | 0.00 | 0.00 | 0.00 | 27 | 1007.6 |
| 20260901191448 | 79 | 193 | 0.0 | 5.0 | 0.00 | 0.00 | 0.00 | 28 | 1007.7 |
| 20260901190432 | 79 | 190 | 1.0 | 7.0 | 0.00 | 0.00 | 0.00 | 26 | 1007.8 |
| 20260901185436 | 79 | 191 | 1.0 | 7.0 | 0.00 | 0.00 | 0.00 | 27 | 1007.8 |
| 20260901183322 | 78 | 193 | 0.0 | 1.0 | 0.00 | 0.00 | 0.00 | 30 | 1008.1 |
| 20260901181145 | 76 | 193 | 0.0 | 1.0 | 0.00 | 0.00 | 0.00 | 33 | 1008.5 |
| 20260901180156 | 75 | 323 | 0.0 | 2.0 | 0.00 | 0.00 | 0.00 | 34 | 1008.6 |
| 20260901175143 | 74 | 0 | 0.0 | 1.0 | 0.00 | 0.00 | 0.00 | 40 | 1008.8 |
| 20260901174149 | 74 | 355 | 0.0 | 8.0 | 0.00 | 0.00 | 0.00 | 38 | 1008.8 |
| 20260901173152 | 73 | 33 | 1.0 | 8.0 | 0.00 | 0.00 | 0.00 | 35 | 1009.0 |
| 20260901172129 | 71 | 345 | 0.0 | 0.0 | 0.00 | 0.00 | 0.00 | 41 | 1009.0 |
| 20260901171133 | 70 | 340 | 0.0 | 0.0 | 0.00 | 0.00 | 0.00 | 42 | 1009.1 |
| 20260901165027 | 67 | 337 | 0.0 | 3.0 | 0.00 | 0.00 | 0.00 | 44 | 1009.2 |
| 20260901164036 | 66 | 336 | 0.0 | 6.0 | 0.00 | 0.00 | 0.00 | 47 | 1009.4 |
| 20260901163015 | 66 | 336 | 0.0 | 6.0 | 0.00 | 0.00 | 0.00 | 49 | 1009.4 |
| 20260901162004 | 65 | 336 | 0.0 | 2.0 | 0.00 | 0.00 | 0.00 | 51 | 1009.5 |
| 20260901161016 | 65 | 336 | 0.0 | 0.0 | 0.00 | 0.00 | 0.00 | 57 | 1009.5 |
| 20260901160016 | 65 | 336 | 0.0 | 0.0 | 0.00 | 0.00 | 0.00 | 54 | 1009.6 |
| 20260901155040 | 66 | 336 | 0.0 | 3.0 | 0.00 | 0.00 | 0.00 | 55 | 1009.6 |
| 20260901154051 | 66 | 337 | 1.0 | 3.0 | 0.00 | 0.00 | 0.00 | 50 | 1009.7 |
| 20260901153019 | 65 | 337 | 2.0 | 4.0 | 0.00 | 0.00 | 0.00 | 52 | 1009.7 |
| 20260901152020 | 63 | 336 | 1.0 | 4.0 | 0.00 | 0.00 | 0.00 | 51 | 1009.7 |
| 20260901151040 | 62 | 336 | 2.0 | 4.0 | 0.00 | 0.00 | 0.00 | 52 | 1009.9 |
| 20260901150014 | 60 | 192 | 2.0 | 3.0 | 0.00 | 0.00 | 0.00 | 56 | 1010.0 |
| 20260901145007 | 59 | 192 | 1.0 | 3.0 | 0.00 | 0.00 | 0.00 | 57 | 1010.0 |
| 20260901143949 | 58 | 193 | 1.0 | 3.0 | 0.00 | 0.00 | 0.00 | 60 | 1010.2 |
| 20260901142916 | 57 | 193 | 1.0 | 3.0 | 0.00 | 0.00 | 0.00 | 61 | 1010.3 |
| 20260901140838 | 54 | 193 | 2.0 | 4.0 | 0.00 | 0.00 | 0.00 | 65 | 1010.2 |
| 20260901135857 | 53 | 193 | 1.0 | 4.0 | 0.00 | 0.00 | 0.00 | 66 | 1010.3 |
| 20260901134904 | 52 | 193 | 1.0 | 4.0 | 0.00 | 0.00 | 0.00 | 68 | 1010.4 |
| 20260901133842 | 51 | 193 | 0.0 | 3.0 | 0.00 | 0.00 | 0.00 | 70 | 1010.4 |
| 20260901132853 | 50 | 193 | 0.0 | 3.0 | 0.00 | 0.00 | 0.00 | 70 | 1010.4 |
| 20260901124514 | 49 | 193 | 0.0 | 0.0 | 0.00 | 0.00 | 0.00 | 73 | 1010.3 |
| 20260901123502 | 49 | 193 | 0.0 | 0.0 | 0.00 | 0.00 | 0.00 | 75 | 1010.3 |
| 20260901122501 | 49 | 193 | 0.0 | 0.0 | 0.00 | 0.00 | 0.00 | 75 | 1010.2 |
| 20260901121447 | 49 | 193 | 0.0 | 0.0 | 0.00 | 0.00 | 0.00 | 76 | 1010.2 |
| 20260901120509 | 49 | 193 | 0.0 | 0.0 | 0.00 | 0.00 | 0.00 | 75 | 1010.2 |
| 20260901115517 | 49 | 193 | 0.0 | 0.0 | 0.00 | 0.00 | 0.00 | 76 | 1010.2 |
| 20260901113315 | 49 | 193 | 0.0 | 0.0 | 0.00 | 0.00 | 0.00 | 77 | 1010.5 |
| 20260901112317 | 49 | 193 | 0.0 | 0.0 | 0.00 | 0.00 | 0.00 | 75 | 1010.5 |
| 20260901110229 | 50 | 193 | 0.0 | 0.0 | 0.00 | 0.00 | 0.00 | 74 | 1010.8 |
| 20260901105212 | 50 | 193 | 0.0 | 0.0 | 0.00 | 0.00 | 0.00 | 72 | 1010.9 |
| 20260901104205 | 51 | 193 | 0.0 | 0.0 | 0.00 | 0.00 | 0.00 | 71 | 1010.9 |
| 20260901103137 | 51 | 193 | 0.0 | 0.0 | 0.00 | 0.00 | 0.00 | 72 | 1011.1 |
| 20260901102135 | 51 | 193 | 0.0 | 0.0 | 0.00 | 0.00 | 0.00 | 70 | 1011.2 |
| 20260901101137 | 51 | 193 | 0.0 | 0.0 | 0.00 | 0.00 | 0.00 | 69 | 1011.2 |
| 20260901100154 | 52 | 193 | 0.0 | 2.0 | 0.00 | 0.00 | 0.00 | 69 | 1011.2 |
| 20260901095141 | 52 | 193 | 0.0 | 0.0 | 0.00 | 0.00 | 0.00 | 69 | 1011.3 |
| 20260901094132 | 52 | 193 | 0.0 | 0.0 | 0.00 | 0.00 | 0.00 | 69 | 1011.0 |
| 20260901092016 | 51 | 193 | 0.0 | 0.0 | 0.00 | 0.00 | 0.00 | 70 | 1011.2 |
| 20260901091012 | 51 | 193 | 0.0 | 0.0 | 0.00 | 0.00 | 0.00 | 72 | 1011.2 |
| 20260901085958 | 51 | 193 | 0.0 | 0.0 | 0.00 | 0.00 | 0.00 | 73 | 1011.3 |
| 20260901084948 | 51 | 193 | 0.0 | 0.0 | 0.00 | 0.00 | 0.00 | 73 | 1011.4 |
| 20260901082803 | 52 | 193 | 0.0 | 0.0 | 0.00 | 0.00 | 0.00 | 71 | 1011.5 |
| 20260901080616 | 53 | 193 | 0.0 | 0.0 | 0.00 | 0.00 | 0.00 | 68 | 1011.7 |
| 20260901072251 | 55 | 193 | 0.0 | 0.0 | 0.00 | 0.00 | 0.00 | 63 | 1012.3 |
| 20260901071259 | 56 | 193 | 0.0 | 0.0 | 0.00 | 0.00 | 0.00 | 62 | 1012.2 |
| 20260901070254 | 56 | 193 | 0.0 | 1.0 | 0.00 | 0.00 | 0.00 | 60 | 1012.3 |
| 20260901065239 | 57 | 193 | 0.0 | 0.0 | 0.00 | 0.00 | 0.00 | 59 | 1012.2 |
| 20260901063144 | 57 | 193 | 0.0 | 2.0 | 0.00 | 0.00 | 0.00 | 57 | 1012.3 |
| 20260901062133 | 57 | 193 | 0.0 | 2.0 | 0.00 | 0.00 | 0.00 | 57 | 1012.4 |
| 20260901061106 | 58 | 193 | 0.0 | 0.0 | 0.00 | 0.00 | 0.00 | 57 | 1012.5 |
| 20260901060121 | 58 | 193 | 0.0 | 0.0 | 0.00 | 0.00 | 0.00 | 58 | 1012.5 |
| 20260901055117 | 58 | 193 | 0.0 | 6.0 | 0.00 | 0.00 | 0.00 | 57 | 1012.6 |